Location: Rowland
(34.5359°N, 79.2929°W)
Time: 17:26:24
(UTC+00:00)

S-56A Canister/Altair - Pass Details

Date: 05 October 2022
Orbit: 638 x 2494 km, 38.9° (Epoch: 06 December)

Event Time Altitude Azimuth Distance (km) Brightness Sun altitude
Exits shadow 06:27:53 15° 70° (ENE) 3,073 10.8 -54.6°
Drops below altitude 10° 06:28:56 10° 71° (ENE) 3,385 11.1 -54.5°
Sets 06:31:22 0° 72° (ENE) 4,145 11.7 -54.2°
